Home > Weather > Chinle > Past weeks

Flag for USA Past Weather in Chinle, Arizona, USA — Yesterday and Last 2 Weeks

Now
61 °F

Clear.


Feels Like: 61 °F
Forecast: 65 / 94 °F
Wind: No wind

Location: Window Rock Airport

Current Time: Jul 30, 2016 at 3:20:23 AM

Latest Report: Jul 30, 2016 at 2:53 AM


Visibility: 10 mi

Pressure: 29.87 "Hg (24.50 "Hg at 1678m altitude)

Humidity: 65%

Dew Point: 49 °F

Location of ChinleLocation

Past Weather in Chinle — Graph

°F

Chinle Temperature Yesterday

Maximum temperature yesterday: 91 °F (at 12:53 PM)
Minimum temperature yesterday: 59 °F (at 4:53 AM)
Average temperature yesterday: 74 °F

High & Low Weather Summary for the Past Weeks

 TemperatureHumidityPressure
High95 °F (Jul 28, 2:53 PM)93% (Jul 21, 5:53 AM)30.13 "Hg (Jul 21, 5:53 AM)
Low49 °F (Jul 15, 4:53 AM)8% (Jul 15, 2:53 PM)29.68 "Hg (Jul 16, 5:53 PM)
Average74 °F44%29.91 "Hg
* Reported Jul 15 1:53 AM — Jul 30 1:53 AM, Chinle, Weather by CustomWeather, © 2016

Note: Actual official high and low records may vary slightly from our data, if they occured in-between our weather recording intervals... More about our weather records

Advertising

Chinle Weather History for the Previous 24 Hours

Scroll right to see more
 ConditionsComfort  
Time TempWeatherWind HumidityBarometerVisibility
1:53 AM
Sat, Jul 30
64 °FClear.3 mph61%29.84 "Hg10 mi
12:53 AM62 °FClear.No wind65%29.81 "Hg10 mi
11:53 PM
Fri, Jul 29
66 °FClear.No wind54%29.82 "Hg10 mi
10:53 PM68 °FClear.6 mph47%29.83 "Hg10 mi
9:53 PM70 °FClear.9 mph42%29.83 "Hg10 mi
8:53 PM71 °FSunny.13 mph42%29.83 "Hg10 mi
7:53 PM74 °FSunny.15 mph38%29.84 "Hg10 mi
6:53 PM78 °FSunny.16 mph33%29.83 "Hg10 mi
5:53 PM89 °FSunny.No wind18%29.75 "Hg10 mi
4:53 PM89 °FSunny.3 mph18%29.78 "Hg10 mi
3:53 PM85 °FSunny.7 mph25%29.80 "Hg10 mi
2:53 PM74 °FPartly sunny.18 mph37%29.89 "Hg10 mi
1:53 PM80 °FLight rain. Partly sunny.30 mph26%29.85 "Hg8 mi
12:53 PM91 °FSunny.10 mph17%29.75 "Hg10 mi
11:53 AM88 °FSunny.5 mph18%29.80 "Hg10 mi
10:53 AM83 °FSunny.5 mph28%29.84 "Hg10 mi
9:53 AM79 °FSunny.7 mph31%29.85 "Hg10 mi
8:53 AM73 °FSunny.3 mph37%29.88 "Hg10 mi
7:53 AM63 °FSunny.5 mph50%29.88 "Hg10 mi
6:53 AM59 °FClear.No wind58%29.87 "Hg10 mi
5:53 AM60 °FClear.5 mph53%29.85 "Hg10 mi
4:53 AM59 °FClear.No wind56%29.82 "Hg10 mi
3:53 AM62 °FClear.No wind52%29.81 "Hg10 mi
Weather by CustomWeather, © 2016

See weather overviewHow to use our weather pages